Location: Beccas
(43.4309°N, 0.1528°E)
Time: 10:21:57
(UTC+00:00)

Uosat 12 SS-18 rocket - Pass Details

Date: 15 October 2021
Orbit: 578 x 1406 km, 64.6° (Epoch: 07 December)

Event Time Altitude Azimuth Distance (km) Brightness Sun altitude
Rises 17:42:38 0° 208° (SSW) 2,928 8.1 -5.6°
Reaches altitude 10° 17:44:44 10° 206° (SSW) 2,093 7.3 -6.0°
Maximum altitude 17:49:26 76° 121° (ESE) 787 4.5 -6.8°
Drops below altitude 10° 17:55:16 10° 37° (NE) 2,571 6.8 -7.9°
Sets 17:58:04 0° 36° (NE) 3,657 7.6 -8.4°
